Regional Weather Roundup
Issued by NWS

Home | Current Version | Previous Version | Graphics & Text | Print | Product List | Glossary On
Versions: 1 2 3 4 5 6 7 8 9 10 11 12 13 14 15 16 17 18 19 20 21 22 23 24 25 26 27
000
ASUS45 KCYS 210210
RWRWY

WYOMING REGIONAL WEATHER ROUNDUP
NATIONAL WEATHER SERVICE CHEYENNE WY
700 PM MST MON FEB 20 2017

NOTE:  "FAIR" INDICATES FEW OR NO CLOUDS BELOW 12,000 FEET
WITH NO SIGNIFICANT WEATHER AND/OR OBSTRUCTIONS TO VISIBILITY.

WYZ001-210300-
YELLOWSTONE NATIONAL PARK

CITY           SKY/WX    TMP DP  RH WIND       PRES   REMARKS
LK YELLOWSTONE   N/A     31  31 100 VRB5      29.88R WCI  26
W YELLOWSTONE  NOT AVBL

$$
WYZ002>013-054>058-071-098>099-210300-
NORTHERN WYOMING

CITY           SKY/WX    TMP DP  RH WIND       PRES   REMARKS
JACKSON        CLOUDY    34  34 100 SW9       29.94R WCI  26
CODY           FAIR      44  31  60 SW9       29.81R
GREYBULL       FAIR      44  31  60 SE7       29.77R
WORLAND        FAIR      42  32  67 SW6       29.79R
SHERIDAN       FAIR      55  26  32 SE13G28   29.72R
BUFFALO        FAIR      51  25  36 E9        29.75F
GILLETTE       FAIR      53  26  35 SW18      29.77R
HULETT         FAIR      52  28  40 SW14      29.76R
NEWCASTLE      FAIR      48  30  49 S12G17    29.86R

$$
WYZ014>020-022>026-101>103-210300-
CENTRAL WYOMING

CITY           SKY/WX    TMP DP  RH WIND       PRES   REMARKS
BIG PINEY      CLOUDY    32  28  85 S8        30.01F WCI  25
PINEDALE       LGT SNOW  32  32 100 SE10      30.01F WCI  24
DUBOIS         CLOUDY    36  28  75 NW10G25   29.90R WCI  28
LANDER         MOCLDY    43  28  55 VRB3      29.88F
RIVERTON       FAIR      43  29  57 SW18      29.91R
CASPER         FAIR      46  29  51 SW24G32   29.93S
DOUGLAS        FAIR      49  27  42 W15G24    29.88S

$$
WYZ021-027>030-104>119-210300-
SOUTHERN WYOMING

CITY           SKY/WX    TMP DP  RH WIND       PRES   REMARKS
EVANSTON       CLOUDY    38  28  67 SW23      30.00S WCI  27
KEMMERER         N/A     36  30  80 W10       30.02R WCI  28
FORT BRIDGER   CLOUDY    37  32  80 NW6       30.04S WCI  33
ROCK SPRINGS   CLOUDY    40  27  59 S17G29    30.02S WCI  31
DIXON            N/A     41  29  62 SW8       30.12F
RAWLINS        FAIR      38  29  70 SW16G23   30.04F WCI  29
SARATOGA       FAIR      36  27  69 SE10      30.06F WCI  28
LARAMIE        FAIR      37  20  50 SW12      30.04F WCI  29
CHEYENNE       FAIR      49  16  26 SW13      30.02S
TORRINGTON     FAIR      53  22  29 W13       29.93S
PINE BLUFFS    FAIR      41  18  38 S6        30.01S

$$




USA.gov is the U.S. government's official web portal to all federal, state and local government web resources and services.